Regional Weather Roundup
Issued by NWS

Home | Current Version | Previous Version | Text Only | Print | Product List | Glossary On
Versions: 1 2 3 4 5 6 7 8 9 10 11 12 13 14 15 16 17 18 19 20 21 22 23 24 25 26 27 28 29 30 31 32 33 34 35 36 37 38 39 40 41 42 43 44 45 46 47 48 49 50
000
ASUS43 KMPX 281501
RWRMN
WEATHER ROUNDUP FOR MINNESOTA
NATIONAL WEATHER SERVICE TWIN CITIES/CHANHASSEN MN
1000 AM CDT TUE JUL 28 2015


NOTE: "FAIR" INDICATES FEW OR NO CLOUDS BELOW 12,000 FEET WITH NO
SIGNIFICANT WEATHER AND/OR OBSTRUCTIONS TO VISIBILITY. N/A MEANS
CURRENT SKY AND/OR WEATHER CONDITIONS ARE NOT AVAILABLE.

MNZ060>063-068>070-281600-
   Twin Cities Metro

CITY           SKY/WX    TMP DP  RH WIND       PRES   REMARKS
TWIN CITIES    CLOUDY    73  69  87 SE13G22   29.80R
ST PAUL        CLOUDY    73  71  93 SE15G23   29.79R
CRYSTAL        CLOUDY    74  70  87 SE13G25   29.78R
BLAINE         CLOUDY    73  70  88 SE17G23   29.77S
LAKEVILLE      CLOUDY    68  66  94 S7        29.83R
EDEN PRAIRIE   CLOUDY    73  69  87 SE14      29.80R
SOUTH ST PAUL  CLOUDY    72  71  96 SE8       29.80R
LAKE ELMO      FAIR      72  70  94 S12G20    29.82R
$$
MNZ001>005-007-008-013>017-022>024-027-028-281600-
   Northwest Minnesota

CITY           SKY/WX    TMP DP  RH WIND       PRES   REMARKS
BEMIDJI        HVY RAIN  71  69  96 SW8       29.69S
HALLOCK        PTSUNNY   75  70  83 S20G28    29.55S
ROSEAU         CLOUDY    75  70  83 SE13G18   29.64R
WARROAD        CLOUDY    73  70  88 SE9       29.64F
THIEF RVR FALL PTSUNNY   73  68  83 S15       29.65R
CROOKSTON      PTSUNNY   73  70  88 SW16G25   29.63S
FOSSTON        PTSUNNY   72  68  88 S8G22     29.68S
DETROIT LAKES  PTSUNNY   72  68  88 S12       29.71F
MOORHEAD       MOSUNNY   75  68  78 SW17      29.69S
PARK RAPIDS    CLOUDY    72  69  90 S12       29.71S
MAHNOMEN       FAIR      72  69  89 S14       29.69R
$$
MNZ006-009>011-018-025>026-281600-
   North Central Minnesota

CITY           SKY/WX    TMP DP  RH WIND       PRES   REMARKS
BAUDETTE       LGT RAIN  72  70  93 SE12      29.67S
FLAG ISLAND    LGT RAIN  75  70  83 S21G28    29.65R
INTL FALLS     LGT RAIN  72  69  90 SE7       29.72S
WASKISH        LGT RAIN  73  72  94 SE6       29.68S
BIG FORK       LGT RAIN  72  70  94 SE3       29.73R
LONGVILLE      LGT RAIN  72  70  94 S10G21    29.72S
GRAND RAPIDS   CLOUDY    72  66  83 S17       29.74R
CRANE LAKE     CLOUDY    70  68  94 SE2       29.76F
ORR            CLOUDY    70  66  88 SE5       29.71F
COOK           CLOUDY    70  66  88 SE6       29.73F
WALKER         CLOUDY    71  68  91 S10G20    29.70R
$$
MNZ012-019>021-037-281600-
   Northeast Minnesota

CITY           SKY/WX    TMP DP  RH WIND       PRES   REMARKS
DULUTH         CLOUDY    73  68  84 SE21G29   29.71F
ELY            CLOUDY    73  66  78 S16       29.77F
HIBBING        CLOUDY    72  68  87 SE15G21   29.71F
EVELETH        CLOUDY    72  70  94 SE9       29.73F
DULUTH HARBOR  DRIZZLE   77  72  83 S20G25    29.72F
TWO HARBORS    CLOUDY    75  70  83 E8        29.76F
SILVER BAY     CLOUDY    72  66  83 E7        29.80F
GRAND MARAIS     N/A     59  56  89 NE10      29.87F
G MARAIS ARPRT CLOUDY    66  61  82 SE6       29.91F
$$
MNZ029>031-032-039>041-046>048-054>057-064-281600-
   West Central Minnesota

CITY           SKY/WX    TMP DP  RH WIND       PRES   REMARKS
FERGUS FALLS   PTSUNNY   73  72  94 SW13      29.71F
WHEATON        PTSUNNY   72  66  83 SW14G22   29.78R
MORRIS         PTSUNNY   75  68  78 SW15      29.77S
ALEXANDRIA     CLOUDY    70  67  90 SW15G25   29.81R
ELBOW LAKE     FAIR      73  69  87 SW16      29.76S
WADENA         CLOUDY    70  66  88 SW9G16    29.73S
GLENWOOD       CLOUDY    72  68  88 SW16      29.80S
APPLETON       CLOUDY    73  68  83 W12       29.78R
BENSON         CLOUDY    73  66  78 NW10      29.80R
ORTONVILLE     PTSUNNY   73  66  78 W10       29.78S
MADISON        CLOUDY    73  66  78 W7        29.79S
WILLMAR        FAIR      70  70 100 SW8       29.82R
$$
MNZ033>034-036-042>043-049>051-058-059-281600-
   Central Minnesota

CITY           SKY/WX    TMP DP  RH WIND       PRES   REMARKS
ST CLOUD       CLOUDY    75  71  87 S12       29.77R
SAUK CENTRE    PTSUNNY   73  67  83 SW13      29.80R
PAYNESVILLE    CLOUDY    70  67  91 S6        29.81R
AITKIN         CLOUDY    75  68  78 S13       29.74R
PINE RIVER     CLOUDY    72  68  88 S10G22    29.77S
BRAINERD       CLOUDY    73  68  84 S17G29    29.76S
STAPLES        CLOUDY    72  66  83 SW13G21   29.75R
LONG PRAIRIE   CLOUDY    72  68  88 S14G21    29.79S
LITTLE FALLS   CLOUDY    70  68  94 SW8       29.78R
LITCHFIELD     CLOUDY    73  72  94 SW3       29.82R
BUFFALO        CLOUDY    74  67  78 SE14G20   29.80R
$$
MNZ037-044-045-052-053-281600-
   East Central Minnesota

CITY           SKY/WX    TMP DP  RH WIND       PRES   REMARKS
PRINCETON      CLOUDY    75  70  83 SE12G17   29.78R
MORA           CLOUDY    72  66  83 S10G17    29.79R
CAMBRIDGE      CLOUDY    72  64  78 SE12G17   29.75R
RUSH CITY      LGT RAIN  71  68  90 SE12G20   29.77R
MOOSE LAKE     CLOUDY    72  70  94 S8G17     29.72R
HINCKLEY       FAIR      73  70  88 SE9G21    29.75R
CLOQUET        CLOUDY    72  68  88 SE12G17   29.72F
MCGREGOR       CLOUDY    72  70  94 S16G22    29.76R
$$
MNZ071>073-080-081-089-090-097-098-281600-
   Southwest Minnesota

CITY           SKY/WX    TMP DP  RH WIND       PRES   REMARKS
MONTEVIDEO     CLOUDY    73  72  94 NW6       29.81R
GRANITE FALLS  CLOUDY    71  66  84 W5        29.81R
CANBY          CLOUDY    74  67  78 SW7       29.79S
MARSHALL       CLOUDY    73  64  73 SW10      29.79S
REDWOOD FALLS  CLOUDY    72  66  81 SW8       29.79R
OLIVIA         CLOUDY    68  63  83 W3        29.81R
PIPESTONE        N/A     75  68  78 SW12      29.81S
WINDOM         CLOUDY    72  68  88 S12       29.81F
WORTHINGTON    CLOUDY    70  64  83 SW10      29.82R
JACKSON        CLOUDY    72  70  94 S12G17    29.83S
SLAYTON        CLOUDY    71  67  89 SW14      29.81F
$$
MNZ065>067-074>077-082>085-091>093-281600-
   South Central Minnesota

CITY           SKY/WX    TMP DP  RH WIND       PRES   REMARKS
MANKATO        CLOUDY    70  64  83 SE7       29.82R
NEW ULM        CLOUDY    70  68  94 S5        29.83R
ST JAMES       CLOUDY    72  70  94 S5        29.83R
FAIRMONT       CLOUDY    72  64  78 S9        29.81S
GLENCOE        CLOUDY    73  69  87 SE13G20   29.81R
FARIBAULT      CLOUDY    70  66  88 SE12      29.81R
OWATONNA       CLOUDY    70  66  88 SE10      29.80R
WASECA         CLOUDY    70  64  83 SE6       29.83R
ALBERT LEA     CLOUDY    72  70  94 SE15G24   29.80R
$$
MNZ078>079-086>088-094>096-281600-
   Southeast Minnesota

CITY           SKY/WX    TMP DP  RH WIND       PRES   REMARKS
ROCHESTER      LGT RAIN  68  67  96 E17       29.89F
RED WING       LGT RAIN  72  70  94 SE25G36   29.77F
STANTON        CLOUDY    70  66  87 CALM      29.83R
DODGE CENTER   LGT RAIN  66  66 100 SE18G31   29.79F
WINONA         HVY RAIN  70  68  94 CALM      29.98S
AUSTIN         RAIN      72  68  88 SE22G29   29.78F
PRESTON        HVY RAIN  67  66  94 NE3       30.00S
$$
ABBREVIATIONS USED IN REMARKS
   TC - TEMPERATURES IN CELSIUS
  WCI - WIND CHILL INDEX
   HX - HEAT INDEX
  VSB - VISIBILITY
$$



USA.gov is the U.S. government's official web portal to all federal, state and local government web resources and services.